Year,Month,Day,Hour,Minute,Value (Times are PST for temperature in C)
2007,10,24,00,00,9.90
2007,10,24,00,01,9.90
2007,10,24,00,02,9.80
2007,10,24,00,03,9.80
2007,10,24,00,04,9.80
2007,10,24,00,05,9.80
2007,10,24,00,06,9.80
2007,10,24,00,07,9.80
2007,10,24,00,08,9.80
2007,10,24,00,09,9.80
2007,10,24,00,10,9.80
2007,10,24,00,11,9.80
2007,10,24,00,12,9.80
2007,10,24,00,13,9.80
2007,10,24,01,02,9.20
2007,10,24,01,03,9.20
2007,10,24,01,04,9.20
2007,10,24,01,05,9.20
2007,10,24,01,06,9.20
2007,10,24,01,07,9.20
2007,10,24,01,08,9.10
2007,10,24,01,09,9.10
2007,10,24,01,10,9.10
2007,10,24,01,11,9.10
2007,10,24,01,12,9.10
2007,10,24,01,13,9.00
2007,10,24,01,14,9.00
2007,10,24,01,15,9.00
2007,10,24,01,16,9.00
2007,10,24,01,17,9.00
2007,10,24,01,18,9.00
2007,10,24,01,19,9.00
2007,10,24,01,20,8.90
2007,10,24,01,21,8.90
2007,10,24,01,22,8.90
2007,10,24,01,23,8.90
2007,10,24,01,24,8.90
2007,10,24,01,25,8.90
2007,10,24,01,26,8.80
2007,10,24,01,27,8.80
2007,10,24,01,28,8.80
2007,10,24,01,29,8.80
2007,10,24,01,30,8.80
2007,10,24,01,31,8.80
2007,10,24,01,32,8.80
2007,10,24,01,33,8.80
2007,10,24,01,34,8.80
2007,10,24,01,35,8.80
2007,10,24,01,36,8.70
2007,10,24,01,37,8.70
2007,10,24,01,38,8.70
2007,10,24,01,39,8.70
2007,10,24,01,40,8.70
2007,10,24,01,41,8.70
2007,10,24,01,42,8.70
2007,10,24,01,43,8.70
2007,10,24,01,44,8.70
2007,10,24,01,45,8.70
2007,10,24,01,46,8.70
2007,10,24,01,47,8.70
2007,10,24,01,48,8.70
2007,10,24,01,49,8.70
2007,10,24,01,50,8.70
2007,10,24,01,51,8.70
2007,10,24,01,52,8.70
2007,10,24,01,53,8.70
2007,10,24,01,54,8.70
2007,10,24,01,55,8.70
2007,10,24,01,56,8.70
2007,10,24,01,57,8.70
2007,10,24,01,58,8.70
2007,10,24,01,59,8.80
2007,10,24,02,00,8.80
2007,10,24,02,01,8.80
2007,10,24,02,02,9.00
2007,10,24,02,03,9.20
2007,10,24,02,04,9.20
2007,10,24,02,05,9.30
2007,10,24,02,06,9.40
2007,10,24,02,07,9.50
2007,10,24,02,08,9.60
2007,10,24,02,09,9.60
2007,10,24,02,10,9.80
2007,10,24,02,11,10.00
2007,10,24,02,12,10.30
2007,10,24,02,13,10.60
2007,10,24,02,14,11.00
2007,10,24,02,15,11.40
2007,10,24,02,16,11.80
2007,10,24,02,17,12.10
2007,10,24,02,18,12.30
2007,10,24,02,19,12.50
2007,10,24,02,20,12.70
2007,10,24,02,21,12.90
2007,10,24,02,22,13.10
2007,10,24,02,23,13.30
2007,10,24,02,24,13.40
2007,10,24,02,25,13.50
2007,10,24,02,26,13.70
2007,10,24,02,27,13.80
2007,10,24,02,28,13.80
2007,10,24,02,29,13.90
2007,10,24,02,30,13.90
2007,10,24,02,31,14.00
2007,10,24,02,32,14.00
2007,10,24,02,33,14.00
2007,10,24,02,34,14.00
2007,10,24,02,35,14.00
2007,10,24,02,36,14.10
2007,10,24,02,37,14.10
2007,10,24,02,38,14.10
2007,10,24,02,39,14.20
2007,10,24,02,40,14.20
2007,10,24,02,41,14.20
2007,10,24,02,42,14.20
2007,10,24,02,43,14.20
2007,10,24,02,44,14.20
2007,10,24,02,45,14.20
2007,10,24,02,46,14.20
2007,10,24,02,47,14.30
2007,10,24,02,48,14.30
2007,10,24,02,49,14.30
2007,10,24,02,50,14.30
2007,10,24,02,51,14.30
2007,10,24,02,52,14.30
2007,10,24,02,53,14.30
2007,10,24,02,54,14.30
2007,10,24,02,55,14.30
2007,10,24,02,56,14.30
2007,10,24,02,57,14.40
2007,10,24,02,58,14.40
2007,10,24,02,59,14.40
2007,10,24,03,00,14.40
2007,10,24,03,01,14.30
2007,10,24,03,02,14.30
2007,10,24,03,03,14.40
2007,10,24,03,04,14.40
2007,10,24,03,05,14.40
2007,10,24,03,06,14.40
2007,10,24,03,07,14.50
2007,10,24,03,08,14.50
2007,10,24,03,09,14.50
2007,10,24,03,10,14.60
2007,10,24,03,11,14.60
2007,10,24,03,12,14.60
2007,10,24,03,13,14.60
2007,10,24,03,14,14.60
2007,10,24,03,15,14.60
2007,10,24,03,16,14.70
2007,10,24,03,17,14.70
2007,10,24,03,18,14.70
2007,10,24,03,19,14.70
2007,10,24,03,20,14.70
2007,10,24,03,21,14.70
2007,10,24,03,22,14.70
2007,10,24,03,23,14.70
2007,10,24,03,24,14.70
2007,10,24,03,25,14.70
2007,10,24,03,26,14.70
2007,10,24,03,27,14.70
2007,10,24,03,28,14.70
2007,10,24,03,29,14.70
2007,10,24,03,30,14.70
2007,10,24,03,31,14.60
2007,10,24,03,32,14.60
2007,10,24,03,33,14.60
2007,10,24,03,34,14.60
2007,10,24,03,35,14.60
2007,10,24,03,36,14.60
2007,10,24,03,37,14.60
2007,10,24,03,38,14.60
2007,10,24,03,39,14.60
2007,10,24,03,40,14.60
2007,10,24,03,41,14.50
2007,10,24,03,42,14.50
2007,10,24,03,43,14.50
2007,10,24,03,44,14.50
2007,10,24,03,45,14.40
2007,10,24,03,46,14.40
2007,10,24,03,47,14.30
2007,10,24,03,48,14.30
2007,10,24,03,49,14.30
2007,10,24,03,50,14.30
2007,10,24,03,51,14.30
2007,10,24,03,52,14.30
2007,10,24,03,53,14.20
2007,10,24,03,54,14.20
2007,10,24,03,55,14.20
2007,10,24,03,56,14.20
2007,10,24,03,57,14.20
2007,10,24,03,58,14.20
2007,10,24,03,59,14.10
2007,10,24,04,00,14.10
2007,10,24,04,01,14.10
2007,10,24,04,02,14.10
2007,10,24,04,03,14.20
2007,10,24,04,04,14.20
2007,10,24,04,05,14.20
2007,10,24,04,06,14.10
2007,10,24,04,07,14.10
2007,10,24,04,08,14.10
2007,10,24,04,09,14.10
2007,10,24,04,10,14.10
2007,10,24,04,11,14.10
2007,10,24,04,12,14.20
2007,10,24,04,13,14.20
2007,10,24,04,14,14.20
2007,10,24,04,15,14.20
2007,10,24,04,16,14.20
2007,10,24,04,17,14.20
2007,10,24,04,18,14.20
2007,10,24,04,19,14.20
2007,10,24,04,20,14.20
2007,10,24,04,21,14.20
2007,10,24,04,22,14.20
2007,10,24,04,23,14.20
2007,10,24,04,24,14.20
2007,10,24,04,25,14.20
2007,10,24,04,26,14.20
2007,10,24,04,27,14.20
2007,10,24,04,28,14.20
2007,10,24,04,29,14.30
2007,10,24,04,30,14.30
2007,10,24,04,31,14.40
2007,10,24,04,32,14.40
2007,10,24,04,33,14.40
2007,10,24,04,34,14.50
2007,10,24,04,35,14.50
2007,10,24,04,36,14.50
2007,10,24,04,37,14.50
2007,10,24,04,38,14.60
2007,10,24,04,39,14.60
2007,10,24,04,40,14.60
2007,10,24,04,41,14.50
2007,10,24,04,42,14.50
2007,10,24,04,43,14.50
2007,10,24,04,44,14.50
2007,10,24,04,45,14.50
2007,10,24,04,46,14.50
2007,10,24,04,47,14.50
2007,10,24,04,48,14.50
2007,10,24,04,49,14.60
2007,10,24,04,50,14.60
2007,10,24,04,51,14.60
2007,10,24,04,52,14.60
2007,10,24,04,53,14.60
2007,10,24,04,54,14.60
2007,10,24,04,55,14.50
2007,10,24,04,56,14.50
2007,10,24,04,57,14.50
2007,10,24,04,58,14.60
2007,10,24,04,59,14.60
2007,10,24,05,00,14.60
2007,10,24,05,01,14.60
2007,10,24,05,02,14.50
2007,10,24,05,03,14.50
2007,10,24,05,04,14.50
2007,10,24,05,05,14.40
2007,10,24,05,06,14.40
2007,10,24,05,07,14.40
2007,10,24,05,08,14.40
2007,10,24,05,09,14.40
2007,10,24,05,10,14.40
2007,10,24,05,11,14.40
2007,10,24,05,12,14.40
2007,10,24,05,13,14.40
2007,10,24,05,14,14.30
2007,10,24,05,15,14.30
2007,10,24,05,16,14.30
2007,10,24,05,17,14.30
2007,10,24,05,18,14.30
2007,10,24,05,19,14.30
2007,10,24,05,20,14.30
2007,10,24,05,21,14.30
2007,10,24,05,22,14.20
2007,10,24,05,23,14.20
2007,10,24,05,24,14.20
2007,10,24,05,25,14.20
2007,10,24,05,26,14.20
2007,10,24,05,27,14.20
2007,10,24,05,28,14.20
2007,10,24,05,29,14.20
2007,10,24,05,30,14.20
2007,10,24,05,31,14.10
2007,10,24,05,32,14.10
2007,10,24,05,33,14.10
2007,10,24,05,34,14.10
2007,10,24,05,35,14.10
2007,10,24,05,36,14.00
2007,10,24,05,37,14.00
2007,10,24,05,38,14.00
2007,10,24,05,39,13.90
2007,10,24,05,40,13.90
2007,10,24,05,41,13.90
2007,10,24,05,42,13.80
2007,10,24,05,43,13.80
2007,10,24,05,44,13.80
2007,10,24,05,45,13.80
2007,10,24,05,46,13.80
2007,10,24,05,47,13.80
2007,10,24,05,48,13.80
2007,10,24,05,49,13.70
2007,10,24,05,50,13.70
2007,10,24,05,51,13.70
2007,10,24,05,52,13.70
2007,10,24,05,53,13.70
2007,10,24,05,54,13.70
2007,10,24,05,55,13.70
2007,10,24,05,56,13.70
2007,10,24,05,57,13.70
2007,10,24,05,58,13.70
2007,10,24,05,59,13.70
2007,10,24,06,00,13.70
2007,10,24,06,01,13.70
2007,10,24,06,02,13.70
2007,10,24,06,03,13.70
2007,10,24,06,04,13.70
2007,10,24,06,05,13.70
2007,10,24,06,06,13.70
2007,10,24,06,07,13.70
2007,10,24,06,08,13.70
2007,10,24,06,09,13.60
2007,10,24,06,10,13.60
2007,10,24,06,11,13.60
2007,10,24,06,12,13.60
2007,10,24,06,13,13.60
2007,10,24,06,14,13.60
2007,10,24,06,15,13.60
2007,10,24,06,16,13.60
2007,10,24,06,17,13.50
2007,10,24,06,18,13.50
2007,10,24,06,19,13.50
2007,10,24,06,20,13.50
2007,10,24,06,21,13.50
2007,10,24,06,22,13.50
2007,10,24,06,23,13.50
2007,10,24,06,24,13.50
2007,10,24,06,25,13.50
2007,10,24,06,26,13.50
2007,10,24,06,27,13.50
2007,10,24,06,28,13.40
2007,10,24,06,29,13.40
2007,10,24,06,30,13.40
2007,10,24,06,31,13.40
2007,10,24,06,32,13.40
2007,10,24,06,33,13.40
2007,10,24,06,34,13.30
2007,10,24,06,35,13.30
2007,10,24,06,36,13.30
2007,10,24,06,37,13.30
2007,10,24,06,38,13.30
2007,10,24,06,39,13.30
2007,10,24,06,40,13.30
2007,10,24,06,41,13.30
2007,10,24,06,42,13.30
2007,10,24,06,43,13.30
2007,10,24,06,44,13.20
2007,10,24,06,45,13.20
2007,10,24,06,46,13.20
2007,10,24,06,47,13.20
2007,10,24,06,48,13.20
2007,10,24,06,49,13.20
2007,10,24,06,50,13.20
2007,10,24,06,51,13.20
2007,10,24,06,52,13.20
2007,10,24,06,53,13.20
2007,10,24,06,54,13.20
2007,10,24,06,55,13.10
2007,10,24,06,56,13.10
2007,10,24,06,57,13.10
2007,10,24,06,58,13.00
2007,10,24,06,59,13.00
2007,10,24,07,00,12.90
2007,10,24,07,01,12.80
2007,10,24,07,02,12.80
2007,10,24,07,03,12.80
2007,10,24,07,04,12.80
2007,10,24,07,05,12.70
2007,10,24,07,06,12.70
2007,10,24,07,07,12.70
2007,10,24,07,08,12.70
2007,10,24,07,09,12.70
2007,10,24,07,10,12.80
2007,10,24,07,11,12.80
2007,10,24,07,12,12.80
2007,10,24,07,13,12.80
2007,10,24,07,14,12.80
2007,10,24,07,15,12.80
2007,10,24,07,16,12.80
2007,10,24,07,17,12.80
2007,10,24,07,18,12.70
2007,10,24,07,19,12.70
2007,10,24,07,20,12.70
2007,10,24,07,21,12.70
2007,10,24,07,22,12.60
2007,10,24,07,23,12.60
2007,10,24,07,24,12.50
2007,10,24,07,25,12.40
2007,10,24,07,26,12.40
2007,10,24,07,27,12.30
2007,10,24,07,28,12.30
2007,10,24,07,29,12.20
2007,10,24,07,30,12.20
2007,10,24,07,31,12.20
2007,10,24,07,32,12.10
2007,10,24,07,33,12.10
2007,10,24,07,34,12.10
2007,10,24,07,35,12.00
2007,10,24,07,36,12.00
2007,10,24,07,37,12.00
2007,10,24,07,38,12.00
2007,10,24,07,39,11.90
2007,10,24,07,40,11.90
2007,10,24,07,41,11.90
2007,10,24,07,42,11.90
2007,10,24,07,43,11.90
2007,10,24,07,44,11.90
2007,10,24,07,45,11.90
2007,10,24,07,46,11.90
2007,10,24,07,47,11.90
2007,10,24,07,48,11.90
2007,10,24,07,49,11.80
2007,10,24,07,50,11.80
2007,10,24,07,51,11.80
2007,10,24,07,52,11.80
2007,10,24,07,53,11.80
2007,10,24,07,54,11.80
2007,10,24,07,55,11.80
2007,10,24,07,56,11.80
2007,10,24,07,57,11.80
2007,10,24,07,58,11.80
2007,10,24,07,59,11.80
2007,10,24,08,00,11.80
2007,10,24,08,01,11.80
2007,10,24,08,02,11.80
2007,10,24,08,03,11.80
2007,10,24,08,04,11.80
2007,10,24,08,05,11.80
2007,10,24,08,06,11.80
2007,10,24,08,07,11.80
2007,10,24,08,08,11.80
2007,10,24,08,09,11.80
2007,10,24,08,10,11.80
2007,10,24,08,11,11.80
2007,10,24,08,12,11.80
2007,10,24,08,13,11.80
2007,10,24,08,14,11.80
2007,10,24,08,15,11.80
2007,10,24,08,16,11.80
2007,10,24,08,17,11.80
2007,10,24,08,18,11.80
2007,10,24,08,19,11.80
2007,10,24,08,20,11.80
2007,10,24,08,21,11.80
2007,10,24,08,22,11.80
2007,10,24,08,23,11.80
2007,10,24,08,24,11.90
2007,10,24,08,25,11.90
2007,10,24,08,26,11.90
2007,10,24,08,27,11.90
2007,10,24,08,28,11.90
2007,10,24,08,29,11.90
2007,10,24,08,30,12.00
2007,10,24,08,31,12.00
2007,10,24,08,32,12.00
2007,10,24,08,33,12.00
2007,10,24,08,34,12.10
2007,10,24,08,35,12.10
2007,10,24,08,36,12.10
2007,10,24,08,37,12.10
2007,10,24,08,38,12.10
2007,10,24,08,39,12.10
2007,10,24,08,40,12.10
2007,10,24,08,41,12.10
2007,10,24,08,42,12.10
2007,10,24,08,43,12.10
2007,10,24,08,44,12.10
2007,10,24,08,45,12.10
2007,10,24,08,46,12.10
2007,10,24,08,47,12.10
2007,10,24,08,48,12.20
2007,10,24,08,49,12.10
2007,10,24,08,50,12.20
2007,10,24,08,51,12.10
2007,10,24,08,52,12.10
2007,10,24,08,53,12.10
2007,10,24,08,54,12.10
2007,10,24,08,55,12.10
2007,10,24,08,56,12.10
2007,10,24,08,57,12.10
2007,10,24,08,58,12.10
2007,10,24,08,59,12.20
2007,10,24,09,00,12.10
2007,10,24,09,01,12.10
2007,10,24,09,02,12.20
2007,10,24,09,03,12.20
2007,10,24,09,04,12.20
2007,10,24,09,05,12.20
2007,10,24,09,06,12.20
2007,10,24,09,07,12.10
2007,10,24,09,08,12.10
2007,10,24,09,09,12.10
2007,10,24,09,10,12.10
2007,10,24,09,11,12.10
2007,10,24,09,12,12.10
2007,10,24,09,13,12.10
2007,10,24,09,14,12.20
2007,10,24,09,15,12.20
2007,10,24,09,16,12.20
2007,10,24,09,17,12.10
2007,10,24,09,18,12.10
2007,10,24,09,19,12.10
2007,10,24,09,20,12.10
2007,10,24,09,21,12.10
2007,10,24,09,22,12.10
2007,10,24,09,23,12.10
2007,10,24,09,24,12.00
2007,10,24,09,25,12.00
2007,10,24,09,26,12.00
2007,10,24,09,27,12.00
2007,10,24,09,28,12.00
2007,10,24,09,29,12.00
2007,10,24,09,30,11.90
2007,10,24,09,31,11.90
2007,10,24,09,32,11.90
2007,10,24,09,33,11.90
2007,10,24,09,34,11.90
2007,10,24,09,35,11.90
2007,10,24,09,36,11.90
2007,10,24,09,37,11.90
2007,10,24,09,38,11.80
2007,10,24,09,39,11.80
2007,10,24,09,40,11.80
2007,10,24,09,41,11.80
2007,10,24,09,42,11.80
2007,10,24,09,43,11.80
2007,10,24,09,44,11.80
2007,10,24,09,45,11.80
2007,10,24,09,46,11.80
2007,10,24,09,47,11.70
2007,10,24,09,48,11.70
2007,10,24,09,49,11.70
2007,10,24,09,50,11.70
2007,10,24,09,51,11.70
2007,10,24,09,52,11.70
2007,10,24,09,53,11.70
2007,10,24,09,54,11.70
2007,10,24,09,55,11.70
2007,10,24,09,56,11.70
2007,10,24,09,57,11.70
2007,10,24,09,58,11.70
2007,10,24,09,59,11.70
2007,10,24,10,00,11.70
2007,10,24,10,01,11.70
2007,10,24,10,02,11.70
2007,10,24,10,03,11.60
2007,10,24,10,04,11.60
2007,10,24,10,05,11.60
2007,10,24,10,06,11.60
2007,10,24,10,07,11.60
2007,10,24,10,08,11.60
2007,10,24,10,09,11.60
2007,10,24,10,10,11.60
2007,10,24,10,11,11.60
2007,10,24,10,12,11.50
2007,10,24,10,13,11.50
2007,10,24,10,14,11.50
2007,10,24,10,15,11.50
2007,10,24,10,16,11.40
2007,10,24,10,17,11.40
2007,10,24,10,18,11.40
2007,10,24,10,19,11.40
2007,10,24,10,20,11.40
2007,10,24,10,21,11.30
2007,10,24,10,22,11.30
2007,10,24,10,23,11.30
2007,10,24,10,24,11.30
2007,10,24,10,25,11.30
2007,10,24,10,26,11.30
2007,10,24,10,27,11.30
2007,10,24,10,28,11.30
2007,10,24,10,29,11.30
2007,10,24,10,30,11.30
2007,10,24,10,31,11.20
2007,10,24,10,32,11.20
2007,10,24,10,33,11.20
2007,10,24,10,34,11.20
2007,10,24,10,35,11.20
2007,10,24,10,36,11.20
2007,10,24,10,37,11.20
2007,10,24,10,38,11.20
2007,10,24,10,39,11.20
2007,10,24,10,40,11.10
2007,10,24,10,41,11.10
2007,10,24,10,42,11.10
2007,10,24,10,43,11.10
2007,10,24,10,44,11.10
2007,10,24,10,45,11.10
2007,10,24,10,46,11.10
2007,10,24,10,47,11.10
2007,10,24,10,48,11.10
2007,10,24,10,49,11.10
2007,10,24,10,50,11.10
2007,10,24,10,51,11.10
2007,10,24,10,52,11.10
2007,10,24,10,53,11.10
2007,10,24,10,54,11.10
2007,10,24,10,55,11.10
2007,10,24,10,56,11.10
2007,10,24,10,57,11.00
2007,10,24,10,58,11.00
2007,10,24,10,59,11.00
2007,10,24,11,00,11.00
2007,10,24,11,01,11.00
2007,10,24,11,02,11.00
2007,10,24,11,03,11.00
2007,10,24,11,04,11.00
2007,10,24,11,05,11.00
2007,10,24,11,06,11.00
2007,10,24,11,07,11.00
2007,10,24,11,08,11.00
2007,10,24,11,09,11.00
2007,10,24,11,10,11.00
2007,10,24,11,11,11.10
2007,10,24,11,12,11.10
2007,10,24,11,13,11.10
2007,10,24,11,14,11.10
2007,10,24,11,15,11.10
2007,10,24,11,16,11.10
2007,10,24,11,17,11.10
2007,10,24,11,18,11.10
2007,10,24,11,19,11.10
2007,10,24,11,20,11.10
2007,10,24,11,21,11.10
2007,10,24,11,22,11.10
2007,10,24,11,23,11.10
2007,10,24,11,24,11.10
2007,10,24,11,25,11.10
2007,10,24,11,26,11.00
2007,10,24,11,27,11.00
2007,10,24,11,28,11.00
2007,10,24,11,29,11.00
2007,10,24,11,30,11.00
2007,10,24,11,31,10.90
2007,10,24,11,32,10.90
2007,10,24,11,33,10.90
2007,10,24,11,34,10.90
2007,10,24,11,35,10.90
2007,10,24,11,36,10.90
2007,10,24,11,37,10.90
2007,10,24,11,38,10.90
2007,10,24,11,39,10.90
2007,10,24,11,40,10.90
2007,10,24,11,41,10.90
2007,10,24,11,42,10.90
2007,10,24,11,43,10.90
2007,10,24,11,44,10.90
2007,10,24,11,45,10.90
2007,10,24,11,46,10.90
2007,10,24,11,47,10.90
2007,10,24,11,48,10.90
2007,10,24,11,49,10.90
2007,10,24,11,50,10.90
2007,10,24,11,51,11.00
2007,10,24,11,52,11.00
2007,10,24,11,53,11.00
2007,10,24,11,54,11.00
2007,10,24,11,55,11.00
2007,10,24,11,56,11.00
2007,10,24,11,57,11.10
2007,10,24,11,58,11.10
2007,10,24,11,59,11.10
2007,10,24,12,00,11.10
2007,10,24,12,01,11.10
2007,10,24,12,02,11.20
2007,10,24,12,03,11.20
2007,10,24,12,04,11.20
2007,10,24,12,05,11.20
2007,10,24,12,06,11.20
2007,10,24,12,07,11.30
2007,10,24,12,08,11.30
2007,10,24,12,09,11.30
2007,10,24,12,10,11.30
2007,10,24,12,11,11.30
2007,10,24,12,12,11.30
2007,10,24,12,13,11.40
2007,10,24,12,14,11.40
2007,10,24,12,15,11.40
2007,10,24,12,16,11.40
2007,10,24,12,17,11.40
2007,10,24,12,18,11.40
2007,10,24,12,19,11.40
2007,10,24,12,20,11.40
2007,10,24,12,21,11.50
2007,10,24,12,22,11.50
2007,10,24,12,23,11.60
2007,10,24,12,24,11.60
2007,10,24,12,25,11.60
2007,10,24,12,26,11.60
2007,10,24,12,27,11.70
2007,10,24,12,28,11.60
2007,10,24,12,29,11.70
2007,10,24,12,30,11.70
2007,10,24,12,31,11.70
2007,10,24,12,32,11.70
2007,10,24,12,33,11.70
2007,10,24,12,34,11.80
2007,10,24,12,35,11.80
2007,10,24,12,36,11.90
2007,10,24,12,37,11.90
2007,10,24,12,38,11.90
2007,10,24,12,39,12.00
2007,10,24,12,40,12.00
2007,10,24,12,41,12.00
2007,10,24,12,42,12.10
2007,10,24,12,43,12.10
2007,10,24,12,44,12.10
2007,10,24,12,45,12.10
2007,10,24,12,46,12.10
2007,10,24,12,47,12.20
2007,10,24,12,48,12.20
2007,10,24,12,49,12.10
2007,10,24,12,50,12.10
2007,10,24,12,51,12.10
2007,10,24,12,52,12.20
2007,10,24,12,53,12.30
2007,10,24,12,54,12.30
2007,10,24,12,55,12.40
2007,10,24,12,56,12.40
2007,10,24,12,57,12.40
2007,10,24,12,58,12.30
2007,10,24,12,59,12.20
2007,10,24,13,00,12.20
2007,10,24,13,01,12.10
2007,10,24,13,02,12.10
2007,10,24,13,03,12.00
2007,10,24,13,04,12.00
2007,10,24,13,05,11.90
2007,10,24,13,06,11.80
2007,10,24,13,07,11.80
2007,10,24,13,08,11.80
2007,10,24,13,09,11.70
2007,10,24,13,10,11.70
2007,10,24,13,11,11.70
2007,10,24,13,12,11.70
2007,10,24,13,13,11.70
2007,10,24,13,14,11.70
2007,10,24,13,15,11.70
2007,10,24,13,16,11.70
2007,10,24,13,17,11.70
2007,10,24,13,18,11.70
2007,10,24,13,19,11.70
2007,10,24,13,20,11.70
2007,10,24,13,21,11.70
2007,10,24,13,22,11.70
2007,10,24,13,23,11.70
2007,10,24,13,24,11.70
2007,10,24,13,25,11.80
2007,10,24,13,26,11.80
2007,10,24,13,27,11.70
2007,10,24,13,28,11.80
2007,10,24,13,29,11.80
2007,10,24,13,30,11.80
2007,10,24,13,31,11.80
2007,10,24,13,32,11.80
2007,10,24,13,33,11.80
2007,10,24,13,34,11.80
2007,10,24,13,35,11.80
2007,10,24,13,36,11.80
2007,10,24,13,37,11.80
2007,10,24,13,38,11.80
2007,10,24,13,39,11.80
2007,10,24,13,40,11.80
2007,10,24,13,41,11.80
2007,10,24,13,42,11.80
2007,10,24,13,43,11.90
2007,10,24,13,44,12.00
2007,10,24,13,45,12.10
2007,10,24,13,46,12.20
2007,10,24,13,47,12.20
2007,10,24,13,48,12.20
2007,10,24,13,49,12.20
2007,10,24,13,50,12.30
2007,10,24,13,51,12.30
2007,10,24,13,52,12.40
2007,10,24,13,53,12.40
2007,10,24,13,54,12.50
2007,10,24,13,55,12.50
2007,10,24,13,56,12.50
2007,10,24,13,57,12.60
2007,10,24,13,58,12.60
2007,10,24,13,59,12.70
2007,10,24,14,00,12.70
2007,10,24,14,01,12.80
2007,10,24,14,02,12.90
2007,10,24,14,03,13.00
2007,10,24,14,04,13.00
2007,10,24,14,05,13.20
2007,10,24,14,06,13.30
2007,10,24,14,07,13.40
2007,10,24,14,08,13.40
2007,10,24,14,09,13.40
2007,10,24,14,10,13.30
2007,10,24,14,11,13.30
2007,10,24,14,12,13.20
2007,10,24,14,13,13.20
2007,10,24,14,14,13.20
2007,10,24,14,15,13.30
2007,10,24,14,16,13.30
2007,10,24,14,17,13.30
2007,10,24,14,18,13.20
2007,10,24,14,19,13.10
2007,10,24,14,20,13.10
2007,10,24,14,21,13.00
2007,10,24,14,22,13.00
2007,10,24,14,23,12.90
2007,10,24,14,24,12.90
2007,10,24,14,25,12.90
2007,10,24,14,26,12.90
2007,10,24,14,27,12.90
2007,10,24,14,28,12.90
2007,10,24,14,29,12.90
2007,10,24,14,30,13.00
2007,10,24,14,31,13.00
2007,10,24,14,32,13.00
2007,10,24,14,33,13.00
2007,10,24,14,34,12.90
2007,10,24,14,35,12.90
2007,10,24,14,36,12.80
2007,10,24,14,37,12.70
2007,10,24,14,38,12.60
2007,10,24,14,39,12.60
2007,10,24,14,40,12.60
2007,10,24,14,41,12.60
2007,10,24,14,42,12.60
2007,10,24,14,43,12.60
2007,10,24,14,44,12.70
2007,10,24,14,45,12.80
2007,10,24,14,46,12.90
2007,10,24,14,47,12.90
2007,10,24,14,48,13.00
2007,10,24,14,49,13.10
2007,10,24,14,50,13.10
2007,10,24,14,51,13.10
2007,10,24,14,52,13.10
2007,10,24,14,53,13.10
2007,10,24,14,54,13.20
2007,10,24,14,55,13.10
2007,10,24,14,56,13.10
2007,10,24,14,57,13.20
2007,10,24,14,58,13.20
2007,10,24,14,59,13.10
2007,10,24,15,00,12.90
2007,10,24,15,01,12.80
2007,10,24,15,02,12.70
2007,10,24,15,03,12.70
2007,10,24,15,04,12.60
2007,10,24,15,05,12.60
2007,10,24,15,06,12.50
2007,10,24,15,07,12.40
2007,10,24,15,08,12.40
2007,10,24,15,09,12.50
2007,10,24,15,10,12.50
2007,10,24,15,11,12.60
2007,10,24,15,12,12.60
2007,10,24,15,13,12.70
2007,10,24,15,14,12.70
2007,10,24,15,15,12.70
2007,10,24,15,16,12.70
2007,10,24,15,17,12.60
2007,10,24,15,18,12.70
2007,10,24,15,19,12.70
2007,10,24,15,20,12.70
2007,10,24,15,21,12.70
2007,10,24,15,22,12.70
2007,10,24,15,23,12.80
2007,10,24,15,24,12.80
2007,10,24,15,25,12.80
2007,10,24,15,26,12.80
2007,10,24,15,27,12.70
2007,10,24,15,28,12.70
2007,10,24,15,29,12.60
2007,10,24,15,30,12.60
2007,10,24,15,31,12.60
2007,10,24,15,32,12.70
2007,10,24,15,33,12.70
2007,10,24,15,34,12.70
2007,10,24,15,35,12.70
2007,10,24,15,36,12.70
2007,10,24,15,37,12.70
2007,10,24,15,38,12.70
2007,10,24,15,39,12.70
2007,10,24,15,40,12.80
2007,10,24,15,41,12.80
2007,10,24,15,42,12.80
2007,10,24,15,43,12.80
2007,10,24,15,44,12.80
2007,10,24,15,45,12.90
2007,10,24,15,46,12.90
2007,10,24,15,47,12.80
2007,10,24,15,48,12.80
2007,10,24,15,49,12.80
2007,10,24,15,50,12.80
2007,10,24,15,51,12.80
2007,10,24,15,52,12.80
2007,10,24,15,53,12.80
2007,10,24,15,54,12.80
2007,10,24,15,55,12.80
2007,10,24,15,56,12.80
2007,10,24,15,57,12.80
2007,10,24,15,58,12.80
2007,10,24,15,59,12.80
2007,10,24,16,00,12.70
2007,10,24,16,01,12.70
2007,10,24,16,02,12.70
2007,10,24,16,03,12.70
2007,10,24,16,04,12.60
2007,10,24,16,05,12.60
2007,10,24,16,06,12.60
2007,10,24,16,07,12.60
2007,10,24,16,08,12.50
2007,10,24,16,09,12.50
2007,10,24,16,10,12.50
2007,10,24,16,11,12.50
2007,10,24,16,12,12.60
2007,10,24,16,13,12.60
2007,10,24,16,14,12.60
2007,10,24,16,15,12.70
2007,10,24,16,16,12.70
2007,10,24,16,17,12.70
2007,10,24,16,18,12.70
2007,10,24,16,19,12.70
2007,10,24,16,20,12.80
2007,10,24,16,21,12.80
2007,10,24,16,22,12.70
2007,10,24,16,23,12.70
2007,10,24,16,24,12.80
2007,10,24,16,25,12.80
2007,10,24,16,26,12.80
2007,10,24,16,27,12.80
2007,10,24,16,28,12.70
2007,10,24,16,29,12.70
2007,10,24,16,30,12.60
2007,10,24,16,31,12.60
2007,10,24,16,32,12.50
2007,10,24,16,33,12.40
2007,10,24,16,34,12.40
2007,10,24,16,35,12.40
2007,10,24,16,36,12.40
2007,10,24,16,37,12.40
2007,10,24,16,38,12.40
2007,10,24,16,39,12.30
2007,10,24,16,40,12.30
2007,10,24,16,41,12.30
2007,10,24,16,42,12.30
2007,10,24,16,43,12.30
2007,10,24,16,44,12.30
2007,10,24,16,45,12.30
2007,10,24,16,46,12.20
2007,10,24,16,47,12.20
2007,10,24,16,48,12.20
2007,10,24,16,49,12.20
2007,10,24,16,50,12.10
2007,10,24,16,51,12.10
2007,10,24,16,52,12.10
2007,10,24,16,53,12.10
2007,10,24,16,54,12.10
2007,10,24,16,55,12.10
2007,10,24,16,56,12.10
2007,10,24,16,57,12.00
2007,10,24,16,58,12.00
2007,10,24,16,59,12.00
2007,10,24,17,00,12.00
2007,10,24,17,01,12.00
2007,10,24,17,02,12.00
2007,10,24,17,03,12.00
2007,10,24,17,04,11.90
2007,10,24,17,05,11.90
2007,10,24,17,06,11.80
2007,10,24,17,07,11.80
2007,10,24,17,08,11.80
2007,10,24,17,09,11.70
2007,10,24,17,10,11.70
2007,10,24,17,11,11.70
2007,10,24,17,12,11.60
2007,10,24,17,13,11.60
2007,10,24,17,14,11.60
2007,10,24,17,15,11.60
2007,10,24,17,16,11.60
2007,10,24,17,17,11.50
2007,10,24,17,18,11.50
2007,10,24,17,19,11.40
2007,10,24,17,20,11.30
2007,10,24,17,21,11.30
2007,10,24,17,22,11.30
2007,10,24,17,23,11.20
2007,10,24,17,24,11.20
2007,10,24,17,25,11.20
2007,10,24,17,26,11.10
2007,10,24,17,27,11.10
2007,10,24,17,28,11.10
2007,10,24,17,29,11.10
2007,10,24,17,30,11.10
2007,10,24,17,31,11.00
2007,10,24,17,32,11.00
2007,10,24,17,33,10.90
2007,10,24,17,34,10.90
2007,10,24,17,35,10.90
2007,10,24,17,36,10.80
2007,10,24,17,37,10.80
2007,10,24,17,38,10.80
2007,10,24,17,39,10.70
2007,10,24,17,40,10.70
2007,10,24,17,41,10.70
2007,10,24,17,42,10.60
2007,10,24,17,43,10.60
2007,10,24,17,44,10.50
2007,10,24,17,45,10.50
2007,10,24,17,46,10.50
2007,10,24,17,47,10.40
2007,10,24,17,48,10.40
2007,10,24,17,49,10.30
2007,10,24,17,50,10.30
2007,10,24,17,51,10.30
2007,10,24,17,52,10.20
2007,10,24,17,53,10.20
2007,10,24,17,54,10.20
2007,10,24,17,55,10.20
2007,10,24,17,56,10.20
2007,10,24,17,57,10.10
2007,10,24,17,58,10.10
2007,10,24,17,59,10.10
2007,10,24,18,00,10.10
2007,10,24,18,01,10.10
2007,10,24,18,02,10.10
2007,10,24,18,03,10.00
2007,10,24,18,04,10.00
2007,10,24,18,05,10.00
2007,10,24,18,06,9.90
2007,10,24,18,07,9.90
2007,10,24,18,08,9.90
2007,10,24,18,09,9.90
2007,10,24,18,10,9.80
2007,10,24,18,11,9.80